HAIYANG-1B

Last updated on Sat Apr 13 2024 01:02:24 GMT+0100 (British Summer Time)

1 31113U 07010A 24103.56145339 .00000155 00000+0 75037-4 0 9999 2 31113 98.2969 108.5879 0014558 45.0512 315.1849 14.30570427886851
UTC large
Height (km)
Speed (km/s)
/
Latitude / Longitude
Inclination (degrees)
Orbital Period (minutes)
Azimuth
Elevation
Range (km)
Doppler Factor

Next 0 passes for location: London (51.5072 / 0.1276)

Sorry there are no passes over London.